FWV98 LYTV-LGSK

Flight info

Callsign FWV98
Flight time N/A
Altitude 33000
Route LASTI DCT PETAK DCT DOBAR DCT TALAS UN130 TSL
Aircraft A320/M-SDE3FGHIRWY/LB1

Departure

Time 2026-05-06 17:24
Airport Tivat Airport (LYTV)

Arrival

Time N/A
Airport Skiathos Island National Airport (LGSK)
Time Latitude Longitude Altitude Speed Heading
2026-05-06 17:05 42.41165 18.71751 26 ft 0 kts 165°
2026-05-06 17:05 42.41157 18.71750 26 ft 0 kts 148°
2026-05-06 17:20 42.41150 18.71756 23 ft 6 kts 149°
2026-05-06 17:20 42.41132 18.71740 26 ft 4 kts 294°
2026-05-06 17:20 42.41172 18.71679 25 ft 11 kts 317°
2026-05-06 17:21 42.41224 18.71619 26 ft 8 kts 321°
2026-05-06 17:21 42.41263 18.71573 26 ft 7 kts 318°
2026-05-06 17:21 42.41304 18.71524 24 ft 8 kts 318°
2026-05-06 17:21 42.41344 18.71472 24 ft 7 kts 304°
2026-05-06 17:22 42.41352 18.71415 23 ft 6 kts 256°
2026-05-06 17:22 42.41312 18.71362 22 ft 9 kts 198°
2026-05-06 17:22 42.41262 18.71388 21 ft 8 kts 136°
2026-05-06 17:22 42.41257 18.71395 21 ft 0 kts 136°
2026-05-06 17:23 42.41213 18.71450 24 ft 35 kts 138°
2026-05-06 17:23 42.40841 18.71892 25 ft 104 kts 139°
2026-05-06 17:24 42.40168 18.72695 39 ft 152 kts 132°
2026-05-06 17:24 42.39281 18.73659 365 ft 171 kts 144°
2026-05-06 17:24 42.38197 18.74441 870 ft 183 kts 160°
2026-05-06 17:24 42.36984 18.74921 1630 ft 180 kts 161°
2026-05-06 17:25 42.35768 18.75410 2150 ft 189 kts 161°
2026-05-06 17:25 42.34431 18.75959 2419 ft 214 kts 161°
2026-05-06 17:25 42.32930 18.76583 2806 ft 237 kts 161°
2026-05-06 17:25 42.31307 18.77265 3481 ft 248 kts 161°
2026-05-06 17:26 42.29654 18.77965 4341 ft 252 kts 163°
2026-05-06 17:26 42.27959 18.78687 5158 ft 258 kts 163°
2026-05-06 17:26 42.27027 18.79084 5601 ft 261 kts 164°